Time,TemperatureF,DewpointF,PressureIn,WindDirection,WindDirectionDegrees,WindSpeedMPH,WindSpeedGustMPH,Humidity,HourlyPrecipIn,Conditions,Clouds,dailyrainin,SoftwareType,DateUTC
2013-02-06 00:04:00,23.7,21.0,29.89,SE,144,0.0,-999.0,89,-99.99,,,0.00,weatherlink.com 1.10,2013-02-06 05:04:00,
2013-02-06 00:19:00,23.8,21.0,29.89,SE,144,0.0,-999.0,89,-99.99,,,0.00,weatherlink.com 1.10,2013-02-06 05:19:00,
2013-02-06 00:34:00,23.9,21.0,29.89,SE,144,0.0,-999.0,89,-99.99,,,0.00,weatherlink.com 1.10,2013-02-06 05:34:00,
2013-02-06 00:49:00,23.9,21.0,29.89,SE,144,0.0,-999.0,89,-99.99,,,0.00,weatherlink.com 1.10,2013-02-06 05:49:00,
2013-02-06 01:04:00,23.9,21.0,29.89,SE,144,0.0,-999.0,89,-99.99,,,0.00,weatherlink.com 1.10,2013-02-06 06:04:00,
2013-02-06 01:20:00,24.0,21.0,29.89,SE,144,0.0,-999.0,89,-99.99,,,0.00,weatherlink.com 1.10,2013-02-06 06:20:00,
2013-02-06 01:34:00,24.0,21.0,29.89,SE,144,0.0,-999.0,89,-99.99,,,0.00,weatherlink.com 1.10,2013-02-06 06:34:00,
2013-02-06 01:49:00,24.0,22.0,29.89,SE,144,0.0,-999.0,90,-99.99,,,0.00,weatherlink.com 1.10,2013-02-06 06:49:00,
2013-02-06 02:04:00,24.0,22.0,29.89,SE,144,0.0,-999.0,90,-99.99,,,0.00,weatherlink.com 1.10,2013-02-06 07:04:00,
2013-02-06 02:20:00,24.0,22.0,29.88,SE,144,0.0,-999.0,90,-99.99,,,0.00,weatherlink.com 1.10,2013-02-06 07:20:00,
2013-02-06 02:35:00,24.0,22.0,29.88,SE,144,0.0,-999.0,90,-99.99,,,0.00,weatherlink.com 1.10,2013-02-06 07:35:00,
2013-02-06 02:50:00,23.9,21.0,29.87,SE,144,0.0,-999.0,90,-99.99,,,0.00,weatherlink.com 1.10,2013-02-06 07:50:00,
2013-02-06 03:05:00,23.9,21.0,29.87,SE,144,0.0,-999.0,90,-99.99,,,0.00,weatherlink.com 1.10,2013-02-06 08:05:00,
2013-02-06 03:20:00,23.9,21.0,29.88,SE,144,0.0,-999.0,90,-99.99,,,0.00,weatherlink.com 1.10,2013-02-06 08:20:00,
2013-02-06 03:35:00,23.8,21.0,29.89,SE,144,0.0,-999.0,90,-99.99,,,0.00,weatherlink.com 1.10,2013-02-06 08:35:00,
2013-02-06 03:50:00,23.7,21.0,29.89,SE,144,0.0,-999.0,90,-99.99,,,0.00,weatherlink.com 1.10,2013-02-06 08:50:00,
2013-02-06 04:05:00,23.7,22.0,29.89,SE,144,0.0,-999.0,91,-99.99,,,0.00,weatherlink.com 1.10,2013-02-06 09:05:00,
2013-02-06 04:20:00,23.8,22.0,29.89,SE,144,0.0,-999.0,91,-99.99,,,0.00,weatherlink.com 1.10,2013-02-06 09:20:00,
2013-02-06 04:35:00,23.9,22.0,29.90,SE,144,0.0,-999.0,91,-99.99,,,0.00,weatherlink.com 1.10,2013-02-06 09:35:00,
2013-02-06 04:50:00,24.0,22.0,29.91,SE,144,0.0,-999.0,91,-99.99,,,0.00,weatherlink.com 1.10,2013-02-06 09:50:00,
2013-02-06 05:05:00,24.2,22.0,29.91,South,188,1.0,-999.0,91,-99.99,,,0.00,weatherlink.com 1.10,2013-02-06 10:05:00,
2013-02-06 05:20:00,24.2,22.0,29.92,SW,217,0.0,-999.0,91,-99.99,,,0.00,weatherlink.com 1.10,2013-02-06 10:20:00,
2013-02-06 05:35:00,24.2,22.0,29.93,SW,226,0.0,-999.0,91,-99.99,,,0.00,weatherlink.com 1.10,2013-02-06 10:35:00,
2013-02-06 05:50:00,24.2,22.0,29.93,WSW,253,1.0,-999.0,91,-99.99,,,0.00,weatherlink.com 1.10,2013-02-06 10:50:00,
2013-02-06 06:05:00,24.1,22.0,29.93,WSW,253,0.0,-999.0,91,-99.99,,,0.00,weatherlink.com 1.10,2013-02-06 11:05:00,
2013-02-06 06:20:00,24.0,22.0,29.94,WSW,253,0.0,-999.0,91,-99.99,,,0.00,weatherlink.com 1.10,2013-02-06 11:20:00,
2013-02-06 06:35:00,23.7,22.0,29.94,WSW,251,0.0,-999.0,91,-99.99,,,0.00,weatherlink.com 1.10,2013-02-06 11:35:00,
2013-02-06 06:50:00,23.2,21.0,29.95,WSW,251,0.0,-999.0,91,-99.99,,,0.00,weatherlink.com 1.10,2013-02-06 11:50:00,
2013-02-06 07:05:00,22.7,20.0,29.95,WSW,251,0.0,-999.0,90,-99.99,,,0.00,weatherlink.com 1.10,2013-02-06 12:05:00,
2013-02-06 07:20:00,22.0,20.0,29.96,WSW,251,0.0,-999.0,90,-99.99,,,0.00,weatherlink.com 1.10,2013-02-06 12:20:00,
2013-02-06 07:35:00,21.0,18.0,29.97,WSW,251,0.0,-999.0,89,-99.99,,,0.00,weatherlink.com 1.10,2013-02-06 12:35:00,
2013-02-06 07:50:00,20.9,19.0,29.98,WSW,251,0.0,-999.0,90,-99.99,,,0.00,weatherlink.com 1.10,2013-02-06 12:50:00,
2013-02-06 08:05:00,20.9,19.0,29.99,WSW,251,0.0,-999.0,90,-99.99,,,0.00,weatherlink.com 1.10,2013-02-06 13:05:00,
2013-02-06 08:20:00,21.6,19.0,29.99,WSW,251,0.0,-999.0,91,-99.99,,,0.00,weatherlink.com 1.10,2013-02-06 13:20:00,
2013-02-06 08:35:00,22.6,20.0,30.00,WSW,251,0.0,-999.0,91,-99.99,,,0.00,weatherlink.com 1.10,2013-02-06 13:35:00,
2013-02-06 08:50:00,23.6,22.0,29.99,WSW,250,0.0,-999.0,92,-99.99,,,0.00,weatherlink.com 1.10,2013-02-06 13:50:00,
2013-02-06 09:05:00,25.3,23.0,30.00,WSW,250,0.0,-999.0,92,-99.99,,,0.00,weatherlink.com 1.10,2013-02-06 14:05:00,
2013-02-06 09:20:00,27.8,25.0,30.00,WSW,250,0.0,-999.0,90,-99.99,,,0.00,weatherlink.com 1.10,2013-02-06 14:20:00,
2013-02-06 09:35:00,29.1,25.0,30.00,SSW,213,1.0,-999.0,84,-99.99,,,0.01,weatherlink.com 1.10,2013-02-06 14:35:00,
2013-02-06 09:51:00,29.2,24.0,30.01,West,268,0.0,-999.0,82,-99.99,,,0.01,weatherlink.com 1.10,2013-02-06 14:51:00,
2013-02-06 10:05:00,28.7,23.0,30.02,NW,306,2.0,-999.0,80,-99.99,,,0.01,weatherlink.com 1.10,2013-02-06 15:05:00,
2013-02-06 10:20:00,28.6,23.0,30.02,SW,235,1.0,-999.0,79,-99.99,,,0.01,weatherlink.com 1.10,2013-02-06 15:20:00,
2013-02-06 10:36:00,30.2,24.0,30.02,West,263,0.0,-999.0,78,-99.99,,,0.01,weatherlink.com 1.10,2013-02-06 15:36:00,
2013-02-06 10:51:00,31.7,24.0,30.03,West,265,4.0,-999.0,74,-99.99,,,0.01,weatherlink.com 1.10,2013-02-06 15:51:00,
2013-02-06 11:06:00,30.9,24.0,30.03,South,175,0.0,-999.0,74,-99.99,,,0.01,weatherlink.com 1.10,2013-02-06 16:06:00,
2013-02-06 11:21:00,30.7,23.0,30.03,SW,232,4.0,-999.0,73,-99.99,,,0.01,weatherlink.com 1.10,2013-02-06 16:21:00,
2013-02-06 11:36:00,31.5,24.0,30.02,West,267,0.0,-999.0,74,-99.99,,,0.02,weatherlink.com 1.10,2013-02-06 16:36:00,
2013-02-06 11:51:00,32.2,23.0,30.02,West,266,5.0,-999.0,69,-99.99,,,0.02,weatherlink.com 1.10,2013-02-06 16:51:00,
2013-02-06 12:06:00,32.0,22.0,30.02,WSW,244,0.0,-999.0,67,-99.99,,,0.02,weatherlink.com 1.10,2013-02-06 17:06:00,
2013-02-06 12:21:00,32.0,22.0,30.02,WNW,297,3.0,-999.0,66,-99.99,,,0.02,weatherlink.com 1.10,2013-02-06 17:21:00,
2013-02-06 12:36:00,31.8,21.0,30.03,West,265,3.0,-999.0,64,-99.99,,,0.02,weatherlink.com 1.10,2013-02-06 17:36:00,
2013-02-06 12:51:00,32.0,22.0,30.03,NW,308,4.0,-999.0,66,-99.99,,,0.02,weatherlink.com 1.10,2013-02-06 17:51:00,
2013-02-06 13:06:00,32.5,21.0,30.03,WNW,283,3.0,-999.0,64,-99.99,,,0.02,weatherlink.com 1.10,2013-02-06 18:06:00,
2013-02-06 13:21:00,32.3,21.0,30.03,West,280,4.0,-999.0,63,-99.99,,,0.02,weatherlink.com 1.10,2013-02-06 18:21:00,
2013-02-06 13:36:00,32.0,20.0,30.04,West,265,2.0,-999.0,61,-99.99,,,0.02,weatherlink.com 1.10,2013-02-06 18:36:00,
2013-02-06 13:51:00,32.3,20.0,30.04,WNW,290,11.0,-999.0,61,-99.99,,,0.02,weatherlink.com 1.10,2013-02-06 18:51:00,
2013-02-06 14:06:00,32.8,21.0,30.04,West,274,9.0,-999.0,61,-99.99,,,0.02,weatherlink.com 1.10,2013-02-06 19:06:00,
2013-02-06 14:21:00,32.8,20.0,30.05,WNW,286,2.0,-999.0,59,-99.99,,,0.02,weatherlink.com 1.10,2013-02-06 19:21:00,
2013-02-06 14:36:00,33.1,19.0,30.05,NW,306,2.0,-999.0,57,-99.99,,,0.02,weatherlink.com 1.10,2013-02-06 19:36:00,
2013-02-06 14:51:00,32.7,20.0,30.06,West,271,4.0,-999.0,59,-99.99,,,0.02,weatherlink.com 1.10,2013-02-06 19:51:00,
2013-02-06 15:06:00,32.0,20.0,30.07,NW,321,2.0,-999.0,62,-99.99,,,0.02,weatherlink.com 1.10,2013-02-06 20:06:00,
2013-02-06 15:21:00,31.5,19.0,30.07,NW,318,1.0,-999.0,60,-99.99,,,0.02,weatherlink.com 1.10,2013-02-06 20:21:00,
2013-02-06 15:36:00,31.6,18.0,30.08,NW,304,3.0,-999.0,57,-99.99,,,0.02,weatherlink.com 1.10,2013-02-06 20:36:00,
2013-02-06 15:51:00,31.8,17.0,30.09,NNW,329,4.0,-999.0,55,-99.99,,,0.02,weatherlink.com 1.10,2013-02-06 20:51:00,
2013-02-06 16:06:00,31.5,16.0,30.11,WNW,296,4.0,-999.0,52,-99.99,,,0.02,weatherlink.com 1.10,2013-02-06 21:06:00,
2013-02-06 16:21:00,31.2,15.0,30.11,NW,317,9.0,-999.0,52,-99.99,,,0.02,weatherlink.com 1.10,2013-02-06 21:21:00,
2013-02-06 16:36:00,30.8,15.0,30.12,WNW,284,6.0,-999.0,52,-99.99,,,0.02,weatherlink.com 1.10,2013-02-06 21:36:00,
2013-02-06 16:51:00,30.2,14.0,30.12,NW,321,5.0,-999.0,52,-99.99,,,0.02,weatherlink.com 1.10,2013-02-06 21:51:00,
2013-02-06 17:07:00,29.5,14.0,30.14,NW,325,5.0,-999.0,52,-99.99,,,0.02,weatherlink.com 1.10,2013-02-06 22:07:00,
2013-02-06 17:21:00,28.9,14.0,30.15,NW,311,2.0,-999.0,53,-99.99,,,0.02,weatherlink.com 1.10,2013-02-06 22:21:00,
2013-02-06 17:36:00,28.1,13.0,30.16,NNW,327,1.0,-999.0,54,-99.99,,,0.02,weatherlink.com 1.10,2013-02-06 22:36:00,
2013-02-06 17:52:00,27.5,12.0,30.17,WNW,296,9.0,-999.0,53,-99.99,,,0.02,weatherlink.com 1.10,2013-02-06 22:52:00,
2013-02-06 18:06:00,27.2,12.0,30.18,NW,320,1.0,-999.0,53,-99.99,,,0.02,weatherlink.com 1.10,2013-02-06 23:06:00,
2013-02-06 18:21:00,26.7,12.0,30.19,North,360,5.0,-999.0,53,-99.99,,,0.02,weatherlink.com 1.10,2013-02-06 23:21:00,
2013-02-06 18:36:00,26.4,11.0,30.20,NNW,332,4.0,-999.0,53,-99.99,,,0.02,weatherlink.com 1.10,2013-02-06 23:36:00,
2013-02-06 18:51:00,26.0,10.0,30.21,WNW,302,3.0,-999.0,52,-99.99,,,0.02,weatherlink.com 1.10,2013-02-06 23:51:00,
2013-02-06 19:06:00,25.5,9.0,30.22,NW,310,5.0,-999.0,50,-99.99,,,0.02,weatherlink.com 1.10,2013-02-07 00:06:00,
2013-02-06 19:22:00,25.1,8.0,30.23,NNW,327,0.0,-999.0,48,-99.99,,,0.02,weatherlink.com 1.10,2013-02-07 00:22:00,
2013-02-06 19:37:00,24.8,8.0,30.23,WNW,284,2.0,-999.0,49,-99.99,,,0.02,weatherlink.com 1.10,2013-02-07 00:37:00,
2013-02-06 19:52:00,24.5,7.0,30.24,NW,326,3.0,-999.0,48,-99.99,,,0.02,weatherlink.com 1.10,2013-02-07 00:52:00,
2013-02-06 20:07:00,24.1,5.0,30.24,West,277,6.0,-999.0,44,-99.99,,,0.02,weatherlink.com 1.10,2013-02-07 01:07:00,
2013-02-06 20:22:00,23.7,4.0,30.25,WNW,292,3.0,-999.0,42,-99.99,,,0.02,weatherlink.com 1.10,2013-02-07 01:22:00,
2013-02-06 20:37:00,23.3,3.0,30.27,WNW,296,5.0,-999.0,42,-99.99,,,0.02,weatherlink.com 1.10,2013-02-07 01:37:00,
2013-02-06 21:07:00,22.7,2.0,30.28,West,281,5.0,-999.0,41,-99.99,,,0.02,weatherlink.com 1.10,2013-02-07 02:07:00,
2013-02-06 21:22:00,22.4,2.0,30.28,NW,326,6.0,-999.0,42,-99.99,,,0.02,weatherlink.com 1.10,2013-02-07 02:22:00,
2013-02-06 21:37:00,21.9,2.0,30.29,NW,319,4.0,-999.0,43,-99.99,,,0.02,weatherlink.com 1.10,2013-02-07 02:37:00,
2013-02-06 21:52:00,21.5,3.0,30.29,NNW,327,3.0,-999.0,45,-99.99,,,0.02,weatherlink.com 1.10,2013-02-07 02:52:00,
2013-02-06 22:09:00,21.1,3.0,30.29,NW,319,2.0,-999.0,45,-99.99,,,0.02,weatherlink.com 1.10,2013-02-07 03:09:00,
2013-02-06 22:22:00,20.6,3.0,30.30,NW,321,5.0,-999.0,47,-99.99,,,0.02,weatherlink.com 1.10,2013-02-07 03:22:00,
2013-02-06 22:37:00,20.2,3.0,30.30,NW,323,5.0,-999.0,48,-99.99,,,0.02,weatherlink.com 1.10,2013-02-07 03:37:00,
2013-02-06 22:52:00,19.7,4.0,30.30,WNW,295,5.0,-999.0,50,-99.99,,,0.02,weatherlink.com 1.10,2013-02-07 03:52:00,
2013-02-06 23:08:00,19.5,4.0,30.30,NW,314,3.0,-999.0,50,-99.99,,,0.02,weatherlink.com 1.10,2013-02-07 04:08:00,
2013-02-06 23:22:00,19.3,3.0,30.31,NW,304,2.0,-999.0,50,-99.99,,,0.02,weatherlink.com 1.10,2013-02-07 04:22:00,
2013-02-06 23:39:00,19.1,3.0,30.31,WNW,294,0.0,-999.0,50,-99.99,,,0.02,weatherlink.com 1.10,2013-02-07 04:39:00,
2013-02-06 23:52:00,18.8,3.0,30.31,NNE,16,5.0,-999.0,51,-99.99,,,0.02,weatherlink.com 1.10,2013-02-07 04:52:00,